Driggs, ID

3:11 PM MDT on October 20, 2019 (GMT -0600)
Driggs

Weather History for KDIJ - September, 2019

Change the Weather History Date:

Thursday, September 19, 2019

  Actual Average (KJAC) Record (KJAC)
Temperature  
Mean Temperature 53 °F -  
Max Temperature 71 °F 65 °F 82 °F (1962)
Min Temperature 36 °F 30 °F 14 °F (1988)
Degree Days  
Heating Degree Days 12    
Growing Degree Days 3 (Base 50)    
Moisture  
Dew Point 35 °F    
Average Humidity 57    
Maximum Humidity 89    
Minimum Humidity 20    
Precipitation  
Precipitation 0.00 in - - ()
Sea Level Pressure  
Sea Level Pressure 29.85 in    
Wind  
Wind Speed 5 mph (North)    
Max Wind Speed 18 mph    
Max Gust Speed 25 mph    
Visibility 10 miles    
Events Rain    
Averages and records for this station are not official NWS values.
T = Trace of Precipitation, MM = Missing Value Source: NWS Daily Summary

Daily Weather History Graph

Daily Weather History Graph

Search for Another Location

Airport or City:

Astronomy

Sep. 19, 2019 Rise Set
Actual Time 7:08 AM MDT 7:27 PM MDT
Civil Twilight 6:39 AM MDT 7:56 PM MDT
Nautical Twilight 6:05 AM MDT 8:30 PM MDT
Astronomical Twilight 5:30 AM MDT 9:04 PM MDT
Moon 10:29 PM MDT (9/19) 12:24 PM MDT (9/19)
Length of Visible Light 13h 16m
Length of Day
12h 19m
Waning Gibbous, 74% of the Moon is Illuminated
Sep 19
Waning Gibbous
Sep 21
Last Quarter
Sep 28
New
Oct 5
First Quarter
Oct 13
Full

Hourly Weather History & Observations

Time (MDT) Temp. Windchill Dew Point Humidity Pressure Visibility Wind Dir Wind Speed Gust Speed Precip Events Conditions
12:56 AM 46.9 °F - 35.1 °F 63% 29.81 in 10.0 mi Calm Calm - N/A   Clear
1:56 AM 48.0 °F - 32.0 °F 54% 29.84 in 10.0 mi NE 9.2 mph - N/A   Clear
2:56 AM 46.0 °F - 33.1 °F 61% 29.86 in 10.0 mi Calm Calm - N/A   Clear
3:56 AM 42.1 °F 40.2 °F 34.0 °F 73% 29.87 in 10.0 mi SE 3.5 mph - N/A   Clear
4:56 AM 39.9 °F - 35.1 °F 83% 29.87 in 10.0 mi Calm Calm - N/A   Clear
5:56 AM 37.0 °F 34.5 °F 33.1 °F 86% 29.88 in 10.0 mi SSE 3.5 mph - N/A   Clear
6:56 AM 36.0 °F 30.3 °F 33.1 °F 89% 29.93 in 10.0 mi ESE 6.9 mph - N/A   Clear
7:56 AM 39.9 °F 37.8 °F 35.1 °F 83% 29.94 in 10.0 mi East 3.5 mph - N/A   Clear
8:56 AM 46.0 °F 43.9 °F 35.1 °F 66% 29.91 in 10.0 mi WSW 4.6 mph - N/A   Clear
9:56 AM 48.9 °F - 36.0 °F 61% 29.89 in 10.0 mi Calm Calm - N/A   Clear
10:56 AM 52.0 °F - 35.1 °F 53% 29.87 in 10.0 mi Variable 3.5 mph - N/A   Clear
11:56 AM 59.0 °F - 35.1 °F 41% 29.84 in 10.0 mi NW 6.9 mph - N/A   Clear
12:56 PM 63.0 °F - 35.1 °F 35% 29.82 in 10.0 mi NNW 4.6 mph - N/A   Clear
1:56 PM 66.9 °F - 33.1 °F 28% 29.76 in 10.0 mi SSW 6.9 mph - N/A   Clear
2:56 PM 70.0 °F - 28.0 °F 21% 29.75 in 10.0 mi SSW 18.4 mph 25.3 mph N/A   Clear
3:56 PM 70.0 °F - 27.0 °F 20% 29.74 in 10.0 mi West 15.0 mph 19.6 mph N/A   Clear
4:17 PM 66.2 °F - 33.8 °F 30% 29.87 in 10.0 mi NNW 16.1 mph - N/A   Scattered Clouds
4:56 PM 64.0 °F - 35.1 °F 34% 29.79 in 10.0 mi NNW 9.2 mph - N/A   Mostly Cloudy
5:56 PM 60.1 °F - 39.0 °F 46% 29.83 in 10.0 mi NNW 15.0 mph - N/A   Mostly Cloudy
6:56 PM 57.0 °F - 37.9 °F 49% 29.88 in 10.0 mi NNW 10.4 mph - N/A   Mostly Cloudy
7:56 PM 54.0 °F - 39.9 °F 59% 29.89 in 10.0 mi ENE 8.1 mph - N/A   Scattered Clouds
8:56 PM 54.0 °F - 39.9 °F 59% 29.89 in 10.0 mi ENE 5.8 mph - N/A   Overcast
9:56 PM 53.1 °F - 39.9 °F 61% 29.89 in 10.0 mi North 10.4 mph - 0.00 in Rain Light Rain
10:56 PM 48.9 °F - 43.0 °F 80% 29.88 in 10.0 mi ENE 8.1 mph - 0.00 in   Overcast
11:56 PM 48.0 °F - 43.0 °F 83% 29.85 in 10.0 mi NNW 10.4 mph - 0.00 in Rain Light Rain